GFSNE_925_spd_234.txt.gz
Wind_Speed
5 4 3 2 1 1 2 4 7 5 7 11 10 10 18 21 23 25 26 28 35 33 33 34 34 32 34 34 34 36 38 39 38 36 45 45 47 44
5 5 3 2 1 2 2 3 4 6 5 8 14 16 17 21 22 25 26 30 27 31 33 36 35 35 36 36 36 35 36 38 39 39 38 39 53 49
5 5 4 2 1 1 2 3 4 4 8 14 14 15 17 20 22 23 24 25 25 26 30 33 37 38 38 39 38 36 35 36 38 38 38 37 47 47
6 6 4 3 2 3 3 3 4 5 9 14 17 14 18 20 21 24 22 23 25 25 29 29 32 35 35 35 37 36 34 35 34 35 35 35 42 34
6 5 4 3 2 2 3 5 6 7 8 10 16 16 17 19 24 21 22 24 21 22 23 27 31 31 34 37 36 33 33 30 30 31 32 36 46 35
8 7 4 3 2 1 2 2 4 6 7 9 12 14 14 16 17 22 24 22 24 20 22 25 28 29 30 31 35 30 27 27 27 23 24 27 24 22
8 6 5 4 4 2 1 4 6 7 9 9 11 11 13 18 19 21 22 24 18 15 22 26 30 35 38 34 26 17 15 19 17 24 30 22 25 25
10 8 5 2 2 2 1 4 3 5 8 9 10 12 14 16 19 21 20 19 11 16 18 22 23 30 38 45 28 17 7 16 31 37 37 38 34 36
8 7 6 3 1 2 2 4 4 6 8 8 10 11 16 17 19 20 17 15 13 14 14 13 23 26 35 42 41 36 32 40 35 36 38 42 44 44
8 7 6 3 2 2 3 3 3 4 5 6 8 10 12 16 15 16 19 18 16 9 9 7 16 18 28 34 36 40 43 42 43 42 41 37 33 31
8 7 5 4 5 4 3 3 3 2 6 8 8 10 11 12 14 13 12 16 8 4 8 5 7 9 21 27 29 29 30 33 33 32 31 29 28 29
10 9 10 7 5 4 4 2 4 2 3 4 5 6 8 11 13 12 12 12 12 3 9 7 8 9 3 17 22 23 26 29 29 28 27 26 23 23
11 11 9 10 7 4 4 3 3 2 3 3 4 6 8 9 11 13 12 10 10 6 10 8 5 6 5 4 13 18 19 22 23 25 25 24 22 18
12 12 13 13 9 5 3 5 1 2 2 2 3 5 7 8 10 10 10 9 9 9 12 6 4 5 6 7 7 12 19 19 20 22 22 22 22 21
13 13 14 12 8 5 4 2 1 2 2 1 2 3 4 6 7 7 5 5 11 14 15 13 9 8 8 10 9 10 9 16 15 15 16 17 15 14
12 14 14 11 8 6 5 1 2 2 1 1 2 3 4 5 6 6 4 3 7 12 16 14 14 12 15 14 12 12 12 7 11 13 13 13 12 12
17 13 12 10 9 8 6 5 3 2 2 1 3 3 4 4 4 4 3 4 5 8 11 14 16 17 17 13 13 12 11 11 9 9 9 9 9 8
17 11 13 14 13 11 9 7 5 4 3 2 2 2 2 2 1 2 2 2 4 6 7 6 7 8 9 14 15 9 8 8 7 7 7 5 5 5
14 12 13 14 14 11 10 9 7 5 6 4 2 1 1 1 1 1 1 2 3 4 4 3 2 2 2 4 5 10 5 5 5 6 6 5 3 3
17 12 11 12 11 13 12 11 9 7 6 5 4 4 3 3 3 2 1 1 2 3 4 5 5 5 4 3 3 3 7 5 5 5 5 5 5 6
16 13 12 11 12 13 13 12 11 9 8 7 6 5 5 4 4 3 2 2 1 1 3 4 5 8 5 6 6 4 3 5 6 3 5 5 5 3
16 16 12 12 13 13 13 14 12 11 9 8 7 6 6 6 5 5 5 3 2 1 3 3 3 2 2 1 3 2 1 4 7 10 8 4 4 4
19 14 12 13 13 14 13 13 13 13 11 10 9 8 8 7 7 6 4 3 4 4 3 3 3 3 3 3 2 2 3 5 7 8 7 11 11 10

GFSNE_925_spd_237.txt.gz
Wind_Speed
8 7 6 5 3 2 1 2 4 4 6 9 10 9 13 17 19 21 22 24 29 30 28 30 34 37 37 37 34 34 34 35 36 36 37 38 38 42
9 8 8 6 4 2 1 0 2 5 5 8 11 13 14 17 19 22 23 27 25 26 32 36 36 35 36 37 36 36 37 37 37 37 39 38 38 40
10 10 8 7 5 4 2 2 2 2 6 10 11 11 14 15 18 20 22 22 23 26 29 34 37 40 38 40 40 42 40 40 39 37 37 39 38 39
10 10 8 7 6 5 3 2 1 2 5 10 10 11 12 14 17 21 21 20 21 23 26 27 32 33 37 40 42 43 43 41 39 38 38 38 41 42
11 10 9 8 7 5 3 1 1 2 4 7 11 10 12 15 19 16 18 20 20 19 22 24 28 30 33 40 41 40 40 38 35 35 35 35 36 39
11 10 8 7 6 5 4 2 1 2 3 5 8 10 12 14 15 19 21 23 25 16 22 21 27 30 34 41 40 38 39 29 24 23 27 32 33 34
11 10 9 10 11 7 5 3 3 3 3 5 7 9 11 15 14 17 18 21 20 14 25 18 25 31 36 42 45 42 40 24 13 12 14 19 21 14
14 11 8 6 5 5 4 3 2 2 3 5 6 8 10 12 13 16 15 15 10 11 22 14 22 28 33 40 43 47 43 40 39 40 39 38 40 35
16 13 9 8 6 4 3 3 2 3 2 3 5 7 10 12 13 16 17 17 17 21 18 8 18 22 29 35 35 40 45 46 42 44 48 50 51 49
12 10 8 7 4 4 3 3 1 0 2 3 4 6 7 9 10 13 19 19 19 8 12 6 14 12 22 27 31 34 36 39 41 40 37 39 40 39
10 10 8 6 4 4 4 2 1 3 4 4 6 7 8 10 13 14 15 15 13 10 14 9 10 13 13 21 23 26 31 31 32 32 34 34 34 36
10 9 12 8 6 5 4 3 3 2 2 2 3 5 6 9 13 13 12 12 14 5 18 14 11 10 2 16 18 20 22 26 31 30 30 27 28 32
11 9 9 12 8 6 7 3 4 3 3 3 1 2 4 7 10 11 12 11 12 9 18 14 9 9 3 3 13 19 21 23 26 29 29 28 25 22
13 12 11 11 9 8 6 6 4 3 3 4 2 2 5 5 7 8 10 10 11 11 14 14 6 8 5 5 5 13 18 20 22 24 24 22 25 25
12 12 12 12 11 8 7 4 2 1 4 5 4 4 3 3 4 4 6 4 7 13 13 14 11 10 10 8 8 10 5 17 18 18 19 20 19 18
10 10 12 13 11 7 7 4 2 3 5 6 3 2 1 3 4 4 4 3 4 9 13 12 12 12 11 10 8 9 12 8 11 13 13 14 14 14
14 12 12 11 11 10 8 6 4 4 5 6 5 3 2 0 2 3 3 2 4 4 7 8 11 11 12 11 9 9 9 9 9 9 8 9 10 10
19 15 15 17 15 14 11 8 7 6 7 7 4 2 1 1 0 1 2 2 3 3 2 2 2 1 3 8 10 8 8 7 8 8 8 6 7 8
19 17 15 16 16 15 13 12 9 9 10 6 4 3 3 1 2 2 1 2 2 3 4 5 6 6 5 3 2 7 8 7 7 7 7 7 5 5
20 16 16 16 15 15 14 13 11 11 7 7 5 4 4 4 3 2 1 1 1 1 2 5 5 7 10 8 4 4 6 6 7 8 8 7 5 6
20 16 17 16 17 16 14 14 14 12 9 9 7 6 5 5 4 3 2 1 1 2 2 3 2 4 2 0 3 2 5 8 9 9 10 8 7 6
24 19 17 16 16 15 15 16 16 14 12 10 8 8 7 6 5 5 4 4 2 1 2 1 3 2 2 4 3 1 1 6 9 11 10 7 5 6
23 22 19 18 17 16 17 17 15 15 14 12 10 8 9 8 7 6 5 3 2 3 2 1 0 1 2 3 4 5 3 6 8 8 9 10 12 12

GFSNE_925_spd_240.txt.gz
Wind_Speed
14 13 12 8 7 6 5 5 1 1 2 4 6 14 13 14 18 19 19 21 20 22 26 30 30 30 31 30 31 33 34 35 37 37 36 37 37 38
15 15 12 11 8 7 6 5 3 0 1 14 11 13 13 12 14 20 19 19 15 23 28 29 32 32 34 36 37 38 38 37 38 40 39 39 39 39
16 15 14 11 10 7 5 4 3 2 2 5 8 11 12 12 16 19 16 16 20 22 23 27 30 30 31 35 39 40 41 43 45 42 41 41 41 38
18 16 14 12 12 9 8 6 4 3 1 5 5 9 8 11 15 16 19 20 17 17 21 21 28 30 31 38 41 45 44 46 48 42 39 40 40 38
20 18 16 13 11 9 7 6 6 4 2 2 3 6 9 14 17 14 17 20 18 13 24 17 25 27 30 35 44 44 43 44 44 34 27 28 31 31
19 17 15 13 12 11 9 7 5 4 2 3 5 7 9 14 12 18 21 19 19 11 22 14 22 28 29 32 40 44 46 47 46 41 25 24 24 25
22 20 18 18 16 15 12 10 7 6 5 5 7 7 9 14 15 15 16 18 15 6 22 14 21 27 29 34 35 38 44 47 47 50 47 31 25 9
25 21 18 17 15 15 11 9 10 9 8 5 4 4 6 10 12 15 14 11 7 9 18 13 19 23 27 29 31 35 37 41 44 47 50 52 53 49
27 22 20 16 15 13 11 10 9 7 6 6 4 3 5 7 8 12 13 15 10 19 14 10 14 17 21 25 27 32 35 37 38 42 44 46 49 53
25 22 18 17 13 13 11 9 6 5 6 5 3 1 1 5 8 10 11 12 11 9 19 5 13 12 17 23 24 27 30 33 36 36 39 39 43 43
21 17 16 16 15 15 13 11 7 5 6 5 6 7 7 8 10 9 10 12 7 5 24 13 10 13 14 20 22 24 29 31 34 34 34 36 37 39
20 19 17 15 16 15 12 10 9 8 4 4 3 3 5 7 9 8 8 10 11 4 18 16 13 14 3 17 19 22 26 26 27 32 32 32 29 34
25 22 19 16 15 15 14 11 9 9 5 6 5 9 7 5 5 4 7 11 10 6 13 15 8 13 5 4 14 19 23 26 26 27 26 30 30 28
26 20 19 16 14 13 12 7 6 6 7 3 6 6 2 1 2 4 6 6 10 9 11 12 8 13 13 5 6 12 18 22 22 24 25 25 24 25
22 19 17 16 13 12 8 6 5 7 2 4 5 9 3 0 4 2 4 1 6 13 7 10 11 12 14 14 7 15 9 19 21 19 20 22 21 21
21 18 17 15 12 10 8 6 8 5 8 4 6 4 1 1 1 2 2 2 1 8 11 11 10 9 11 12 11 12 14 12 16 14 16 17 17 19
22 20 18 16 14 9 8 7 5 6 6 6 5 3 2 1 2 2 3 3 2 2 6 8 9 9 10 7 7 11 11 13 14 14 16 13 14 16
23 22 19 17 13 12 11 9 7 5 5 5 4 4 4 4 3 3 1 2 3 2 2 6 4 3 2 7 8 7 10 11 12 12 12 12 12 13
21 19 18 17 14 13 12 12 9 7 8 8 7 6 6 6 7 4 3 1 1 2 3 4 7 10 8 2 3 7 5 6 7 10 9 8 9 11
22 21 19 16 15 15 14 13 11 11 11 10 8 7 7 7 6 6 5 4 1 2 3 1 3 4 4 2 1 4 7 8 9 10 13 8 8 6
23 22 19 17 16 16 16 15 15 15 13 11 9 9 9 10 8 8 7 6 5 2 4 3 4 3 2 3 2 1 5 9 10 11 13 9 10 8
27 24 21 17 16 16 17 17 17 16 13 12 12 11 10 11 10 10 7 5 5 2 3 2 3 4 4 5 3 2 1 9 7 9 9 8 6 5
29 26 23 21 18 17 20 20 19 16 15 16 13 13 11 11 10 10 9 7 5 4 4 4 2 1 1 2 3 5 6 5 8 5 10 11 8 10

GFSNE_925_spd_246.txt.gz
Wind_Speed
27 25 25 23 21 19 18 21 13 4 2 8 6 7 8 9 11 9 11 11 12 15 15 19 19 19 19 21 23 26 28 30 32 35 38 43 45 46
31 31 28 24 19 16 16 16 14 9 4 5 7 11 6 6 7 8 9 7 9 13 16 18 20 20 19 21 24 26 28 31 34 37 42 46 50 50
33 32 27 24 21 18 16 14 13 11 12 9 9 7 5 5 6 8 7 7 7 11 15 15 18 22 23 23 25 28 31 33 36 38 42 46 52 52
37 33 28 24 20 19 17 16 14 11 14 18 10 6 5 5 7 7 8 7 6 8 13 15 20 24 25 22 26 31 33 34 35 37 44 52 55 57
35 32 29 27 25 22 20 18 16 14 14 14 9 6 2 3 4 6 8 7 7 11 14 12 19 22 23 22 27 30 31 32 35 39 41 51 50 59
33 32 30 29 28 26 23 21 19 17 15 16 12 9 4 1 3 8 10 9 8 10 10 11 13 19 20 24 25 27 30 32 34 39 39 43 50 48
29 28 28 26 24 24 25 24 21 18 17 15 12 8 6 4 4 6 8 10 7 10 13 10 10 18 20 22 23 25 25 30 34 36 37 38 42 46
35 30 28 26 25 23 21 20 17 19 19 15 11 13 9 9 6 7 8 8 4 8 15 8 9 16 18 18 21 24 25 29 33 32 34 34 38 39
40 37 32 30 28 27 23 19 16 14 11 14 19 17 16 10 8 9 6 5 3 5 13 5 9 12 14 18 20 22 25 27 29 32 31 31 31 36
41 39 37 35 31 29 26 22 18 16 14 13 12 13 10 10 7 7 7 5 6 1 12 3 9 8 9 16 20 23 24 26 25 27 30 28 26 28
39 37 36 35 32 29 27 26 23 19 14 14 13 15 12 8 8 11 10 12 4 2 12 4 8 8 2 10 18 21 23 25 27 25 25 29 25 27
38 36 35 35 33 29 30 32 30 26 25 24 19 15 10 7 11 9 13 12 7 3 6 5 7 6 3 5 12 17 20 24 26 27 25 25 27 27
41 38 36 35 34 32 31 31 30 31 27 23 20 16 11 11 11 10 12 12 9 4 5 4 4 6 3 5 5 16 17 19 22 24 23 23 25 28
44 42 39 37 35 33 30 27 26 29 28 25 22 19 16 13 10 8 8 9 10 6 4 4 2 6 6 4 4 15 8 18 17 19 21 21 23 22
41 42 40 38 33 30 28 26 28 29 29 28 25 23 17 12 12 11 8 6 6 6 3 2 2 4 6 5 4 12 13 12 17 13 17 21 24 23
37 36 35 33 32 28 27 29 30 29 30 28 25 21 17 18 16 13 10 9 5 3 3 3 2 2 3 5 7 8 10 9 14 12 12 16 20 20
39 37 35 34 31 29 28 28 29 29 28 24 25 24 22 20 15 15 12 11 9 6 6 3 1 2 4 5 4 6 10 9 11 13 10 12 16 16
36 30 26 28 28 31 31 30 30 30 28 26 27 27 24 20 18 17 15 12 9 13 8 5 3 6 4 3 4 6 7 10 10 11 10 6 9 10
28 27 27 28 26 28 30 29 32 31 28 27 28 25 22 20 20 17 13 9 7 11 10 6 2 4 2 1 2 6 6 9 11 10 10 6 5 6
25 28 28 27 26 28 28 29 29 28 27 26 25 24 22 21 19 16 14 12 11 11 11 7 4 4 2 3 1 3 7 8 9 10 13 9 4 5
30 28 28 30 30 30 31 32 29 29 29 25 23 22 20 18 16 16 14 11 11 10 10 8 3 2 2 1 1 4 6 6 8 7 10 9 8 2
34 34 35 35 35 36 33 32 30 27 27 24 23 21 19 18 17 15 14 14 11 9 7 7 4 4 3 0 2 4 7 8 7 7 7 7 5 6
34 35 37 36 36 35 32 31 31 29 27 24 26 23 20 18 16 13 12 11 10 10 10 8 6 4 2 1 2 5 8 10 10 11 9 8 9 8